Somerville, NJ

8:53 PM EDT on June 27, 2017 (GMT -0400)
Somerset

Weather History for KSMQ - November, 2012

Change the Weather History Date:

Wednesday, November 14, 2012

  Actual Average Record
Temperature  
Mean Temperature 37 °F -  
Max Temperature 48 °F 49 °F 72 °F (1955)
Min Temperature 26 °F 32 °F 14 °F (1986)
Degree Days  
Heating Degree Days 28    
Moisture  
Dew Point 25 °F    
Average Humidity 71    
Maximum Humidity 96    
Minimum Humidity 36    
Precipitation  
Precipitation 0.01 in - - ()
Sea Level Pressure  
Sea Level Pressure 30.48 in    
Wind  
Wind Speed 2 mph (North)    
Max Wind Speed 9 mph    
Max Gust Speed 18 mph    
Visibility 10 miles    
Events      
Averages and records for this station are not official NWS values.
T = Trace of Precipitation, MM = Missing Value Source: NWS Daily Summary

Daily Weather History Graph

Daily Weather History Graph

Search for Another Location

Airport or City:

Trip Planner

Search our weather history database for the weather conditions in past years. The results will help you decide how hot, cold, wet, or windy it might be!

Date:

Astronomy

Nov. 14, 2012 Rise Set
Actual Time 6:44 AM EST 4:41 PM EST
Civil Twilight 6:15 AM EST 5:10 PM EST
Nautical Twilight 5:42 AM EST 5:43 PM EST
Astronomical Twilight 5:10 AM EST 6:15 PM EST
Moon 7:31 AM EST (11/14) 5:27 PM EST (11/14)
Length of Visible Light 10h 55m
Length of Day
9h 56m
New Moon, 1% of the Moon is Illuminated
Nov 14
New Moon
Nov 20
First Quarter
Nov 28
Full
Dec 6
Last Quarter
Dec 13
New

Hourly Weather History & Observations

Time (EST) Temp. Windchill Dew Point Humidity Pressure Visibility Wind Dir Wind Speed Gust Speed Precip Events Conditions
12:53 AM 30.9 °F - 28.0 °F 89% 30.46 in 10.0 mi Calm Calm - N/A   Clear
1:53 AM 28.9 °F - 27.0 °F 92% 30.47 in 10.0 mi Calm Calm - N/A   Clear
2:53 AM 28.9 °F - 27.0 °F 92% 30.48 in 10.0 mi Calm Calm - N/A   Clear
3:53 AM 28.0 °F - 27.0 °F 96% 30.48 in 9.0 mi Calm Calm - N/A   Clear
4:53 AM 27.0 °F 23.0 °F 26.1 °F 96% 30.50 in 8.0 mi WNW 3.5 mph - N/A   Partly Cloudy
5:53 AM 27.0 °F - 26.1 °F 96% 30.50 in 10.0 mi Calm Calm - N/A   Clear
6:53 AM 26.1 °F - 25.0 °F 96% 30.52 in 8.0 mi Calm Calm - N/A   Clear
7:53 AM 30.0 °F - 28.0 °F 92% 30.52 in 10.0 mi Calm Calm - N/A   Clear
8:53 AM 39.9 °F 35.1 °F 27.0 °F 60% 30.53 in 10.0 mi North 6.9 mph - N/A   Clear
9:53 AM 43.0 °F 37.7 °F 23.0 °F 45% 30.53 in 10.0 mi North 9.2 mph 18.4 mph 0.01 in   Clear
10:53 AM 45.0 °F 40.1 °F 21.9 °F 40% 30.51 in 10.0 mi NNE 9.2 mph - N/A   Clear
11:53 AM 46.9 °F - 24.1 °F 41% 30.49 in 10.0 mi North 6.9 mph - N/A   Partly Cloudy
12:53 PM 48.0 °F - 25.0 °F 41% 30.46 in 10.0 mi NNE 9.2 mph - N/A   Clear
1:53 PM 48.9 °F - 25.0 °F 39% 30.46 in 10.0 mi Calm Calm - N/A   Clear
2:53 PM 48.9 °F - 24.1 °F 38% 30.46 in 10.0 mi North 6.9 mph - N/A   Clear
3:53 PM 48.0 °F - 21.9 °F 36% 30.45 in 10.0 mi NNE 5.8 mph - N/A   Clear
4:53 PM 45.0 °F - 23.0 °F 42% 30.46 in 10.0 mi Calm Calm - N/A   Clear
5:53 PM 39.0 °F 36.8 °F 26.1 °F 60% 30.46 in 10.0 mi North 3.5 mph - N/A   Clear
6:53 PM 35.1 °F - 27.0 °F 72% 30.47 in 10.0 mi Calm Calm - N/A   Clear
7:53 PM 30.9 °F - 27.0 °F 85% 30.47 in 10.0 mi Calm Calm - N/A   Clear
8:53 PM 30.0 °F 25.2 °F 25.0 °F 82% 30.46 in 10.0 mi North 4.6 mph - N/A   Clear
9:53 PM 30.0 °F - 25.0 °F 82% 30.45 in 10.0 mi Calm Calm - N/A   Clear
10:53 PM 28.0 °F - 26.1 °F 92% 30.45 in 10.0 mi Calm Calm - N/A   Clear
11:53 PM 28.0 °F - 25.0 °F 88% 30.46 in 10.0 mi Calm Calm - N/A   Clear